Regional Weather Roundup
Issued by NWS Green Bay, WI

Home | Current Version | Previous Version | Graphics & Text | Print | Product List | Glossary Off
Versions: 1 2 3 4 5 6 7 8 9 10 11 12 13 14 15 16 17 18 19 20 21 22 23 24 25 26 27 28 29 30 31 32 33 34 35 36 37 38 39 40 41 42 43 44 45 46 47 48 49 50

000
ASUS43 KGRB 161801
RWRGRB

NORTH-CENTRAL AND NORTHEAST WISCONSIN REGIONAL WEATHER ROUNDUP
NATIONAL WEATHER SERVICE GREEN BAY WI
100 PM CDT MON OCT 16 2017

WIZ005-009-010>012-018-019-161900-
NORTH CENTRAL WISCONSIN

CITY           SKY/WX    TMP DP  RH WIND       PRES   REMARKS
IRONWOOD       MOSUNNY   54  35  48 SW14G23   30.11F
MANITOWISH WTR NOT AVBL
ARBOR VITAE    NOT AVBL
EAGLE RIVER    NOT AVBL
LAND O LAKES   NOT AVBL
RHINELANDER    SUNNY     53  36  52 W18G25    30.16F
PHILLIPS       SUNNY     53  37  54 SW14G21   30.15F
ANTIGO         NOT AVBL
TOMAHAWK       NOT AVBL
MERRILL        SUNNY     56  37  49 W13       30.18F
$$

WIZ013-073-161900-
NORTHEAST WISCONSIN

CITY           SKY/WX    TMP DP  RH WIND       PRES   REMARKS
IRON MOUNTAIN  SUNNY     56  33  42 W10       30.14F
MARINETTE      SUNNY     55  37  50 SW14G20   30.19
$$

WIZ017-030-035>037-045-161900-
CENTRAL WISCONSIN

CITY           SKY/WX    TMP DP  RH WIND       PRES   REMARKS
MEDFORD        NOT AVBL
WAUSAU         SUNNY     55  36  48 SW12G20   30.18F
MOSINEE        NOT AVBL
MARSHFIELD     SUNNY     56  35  45 W14       30.20F
WISC RAPIDS    SUNNY     57  40  52 SW10G20   30.23F
STEVENS POINT  NOT AVBL
WAUPACA        NOT AVBL
SHAWANO        SUNNY     58  39  49 SW7G17    30.20F
CLINTONVILLE   NOT AVBL
WAUTOMA        SUNNY     58  36  43 SW10      30.24F
$$

WIZ038-039-048-051-161900-
FOX VALLEY

CITY           SKY/WX    TMP DP  RH WIND       PRES   REMARKS
NWS GREEN BAY  SUNNY     55  41  59 SW13      30.22F
APPLETON       SUNNY     55  32  41 SW12G17   30.22F
OSHKOSH        SUNNY     56  37  49 SW8       30.23F
FOND DU LAC    SUNNY     57  34  41 W10G18    30.24F
$$

WIZ022-050-052-161900-
EAST CENTRAL WISCONSIN

CITY           SKY/WX    TMP DP  RH WIND       PRES   REMARKS
EPHRAIM        NOT AVBL
WASHINGTON ISL NOT AVBL
STURGEON BAY   SUNNY     53  39  59 MISG      30.21F
MANITOWOC      SUNNY     56  37  49 SW10      30.24F
SHEBOYGAN      SUNNY     57  39  51 VRB7      30.24F
$$

LMZ563-521-522-541>543-161900-
LAKESHORE

STATION/POSITION TIME  TEMP    WIND        PRES    VSBY  WAVE
                       AIR SEA DIR/SP/G                  HT/PER
                 (UTC) (F)     (DEG/KT/KT) (MB)    (MI)  (FT/S)
SHEBOYGAN LKSHOR 1700   54     240/  8/ 10 1024.9F
KEWAUNEE LKSHORE 1730   54     280/  6/ 13 1022.6F
NORTHPORT PIER   1740   54     250/  5/ 11 1022.0F
N MID LAKE BUOY  1650   51 60  240/ 16/ 17 1023.6          2/ 3
S GREEN BAY BUOY 1730   52 58  220/ 12/ 16 1022.7F
SISTER BAY LKSHO 1719   56     250/ 12/ 15   N/A
MENOMINEE LKSHOR 1730   53     220/ 11/ 16 1022.2F
$$




USA.gov is the U.S. government's official web portal to all federal, state and local government web resources and services.